FGRST (GLAST) (33053 NORAD) Tracking and Keplerian Element Data

This shows tracking and keplerian element data for the satellite.

Feedback or suggestion? Click here.




ElementValue
Catalog33053
NameFGRST (GLAST)
Epoch Orbit55716
Epoch Day198.39238606
Epoch Year2018
RAAN193.7468
Inclination25.5814
Eccentricity0.0012406
Argument of Perigee172.7817
Mean Anonmoly187.2898
Mean Motion15.11107024
Decay Rate3.97E-06
L11 33053U 08029A 18198.39238606 .00000397 00000-0 59204-5 0 9991
L22 33053 25.5814 193.7468 0012406 172.7817 187.2898 15.11107024557164

Live tracking and technical data element details for FGRST (GLAST) (NORAD 33053). FGRST (GLAST) can be tracked NOW for your location showing map with azimuth and elevation plus other details from your city location.

Track the satellite on the map from your city or location and see movement details for azimuth, elevation, latitude, longitude, range, height, and movement on the map or in text.







IsCatalogInMostPopularTable: catalog: 33053, numindb: 34
Update: records affected: 1



GetName: 33053 FGRST (GLAST)

Hit Count: updated at: Wed, 18 Jul 2018 20:32:49 GMT